Time,TemperatureF,DewpointF,PressureIn,WindDirection,WindDirectionDegrees,WindSpeedMPH,WindSpeedGustMPH,Humidity,HourlyPrecipIn,Conditions,Clouds,dailyrainin,SoftwareType,DateUTC
2013-01-29 00:00:00,45.9,41.7,29.81,West,270,1.8,4.0,85,0.00,,,0.00,WUHU216HW,2013-01-29 05:00:00,
2013-01-29 00:01:00,45.9,41.7,29.81,West,270,1.8,4.0,85,0.00,,,0.00,WUHU216HW,2013-01-29 05:01:00,
2013-01-29 00:03:00,45.9,41.7,29.81,SSW,203,3.1,4.0,85,0.00,,,0.00,WUHU216HW,2013-01-29 05:03:00,
2013-01-29 00:08:00,45.9,41.7,29.81,SW,225,3.4,3.4,85,0.00,,,0.00,WUHU216HW,2013-01-29 05:08:00,
2013-01-29 00:13:00,45.9,41.7,29.81,South,180,2.2,4.7,85,0.00,,,0.00,WUHU216HW,2013-01-29 05:13:00,
2013-01-29 00:18:00,45.9,41.4,29.81,SSW,203,5.1,5.1,84,0.00,,,0.00,WUHU216HW,2013-01-29 05:18:00,
2013-01-29 00:23:00,45.9,41.7,29.81,SW,225,4.5,5.1,85,0.00,,,0.00,WUHU216HW,2013-01-29 05:23:00,
2013-01-29 00:28:00,45.9,41.7,29.80,West,270,3.8,4.5,85,0.00,,,0.00,WUHU216HW,2013-01-29 05:28:00,
2013-01-29 00:33:00,45.9,41.7,29.80,WNW,293,2.2,3.8,85,0.00,,,0.00,WUHU216HW,2013-01-29 05:33:00,
2013-01-29 00:38:00,46.1,41.9,29.80,SW,225,3.4,3.8,85,0.00,,,0.00,WUHU216HW,2013-01-29 05:38:00,
2013-01-29 00:43:00,45.9,41.7,29.80,SW,225,2.5,4.0,85,0.00,,,0.00,WUHU216HW,2013-01-29 05:43:00,
2013-01-29 00:48:00,45.9,41.7,29.80,SW,225,2.5,4.0,85,0.00,,,0.00,WUHU216HW,2013-01-29 05:48:00,
2013-01-29 00:53:00,45.9,41.7,29.80,WSW,248,2.2,5.1,85,0.00,,,0.00,WUHU216HW,2013-01-29 05:53:00,
2013-01-29 00:58:00,45.9,41.7,29.80,WSW,248,2.7,5.4,85,0.00,,,0.00,WUHU216HW,2013-01-29 05:58:00,
2013-01-29 01:03:00,45.9,41.7,29.79,SSW,203,1.1,5.4,85,0.00,,,0.00,WUHU216HW,2013-01-29 06:03:00,
2013-01-29 01:08:00,45.9,41.7,29.79,WSW,248,3.6,4.0,85,0.00,,,0.00,WUHU216HW,2013-01-29 06:08:00,
2013-01-29 01:13:00,46.1,42.1,29.79,SW,225,3.1,4.3,86,0.00,,,0.00,WUHU216HW,2013-01-29 06:13:00,
2013-01-29 01:18:00,46.1,42.1,29.79,SSW,203,2.7,5.4,86,0.00,,,0.00,WUHU216HW,2013-01-29 06:18:00,
2013-01-29 01:23:00,46.1,42.1,29.79,South,180,6.0,6.0,86,0.00,,,0.00,WUHU216HW,2013-01-29 06:23:00,
2013-01-29 01:28:00,45.9,41.9,29.79,West,270,6.5,6.5,86,0.00,,,0.00,WUHU216HW,2013-01-29 06:28:00,
2013-01-29 01:33:00,45.9,41.9,29.79,West,270,6.5,6.5,86,0.00,,,0.00,WUHU216HW,2013-01-29 06:33:00,
2013-01-29 01:59:00,45.7,41.8,29.79,West,270,2.5,2.5,86,0.00,,,0.00,WUHU216HW,2013-01-29 06:59:00,
2013-01-29 02:04:00,45.7,41.8,29.79,West,270,2.5,2.5,86,0.00,,,0.00,WUHU216HW,2013-01-29 07:04:00,
2013-01-29 02:59:00,45.7,41.8,29.80,South,180,1.6,1.6,86,0.00,,,0.00,WUHU216HW,2013-01-29 07:59:00,
2013-01-29 03:04:00,45.7,41.8,29.80,South,180,1.6,1.6,86,0.00,,,0.00,WUHU216HW,2013-01-29 08:04:00,
2013-01-29 03:59:00,45.2,41.6,29.79,SSW,203,2.0,2.0,87,0.00,,,0.00,WUHU216HW,2013-01-29 08:59:00,
2013-01-29 04:04:00,45.2,41.6,29.79,SSW,203,2.0,2.0,87,0.00,,,0.00,WUHU216HW,2013-01-29 09:04:00,
2013-01-29 04:59:00,44.8,41.5,29.78,SW,225,2.5,2.5,88,0.00,,,0.00,WUHU216HW,2013-01-29 09:59:00,
2013-01-29 05:04:00,44.8,41.5,29.78,SW,225,2.5,2.5,88,0.00,,,0.00,WUHU216HW,2013-01-29 10:04:00,
2013-01-29 05:59:00,44.5,41.1,29.79,WSW,248,1.1,1.1,88,0.00,,,0.00,WUHU216HW,2013-01-29 10:59:00,
2013-01-29 06:04:00,44.5,41.1,29.79,South,180,0.4,1.1,88,0.00,,,0.00,WUHU216HW,2013-01-29 11:04:00,
2013-01-29 06:09:00,44.5,41.1,29.79,SE,135,0.9,1.1,88,0.00,,,0.00,WUHU216HW,2013-01-29 11:09:00,
2013-01-29 06:14:00,44.5,41.1,29.79,WSW,248,0.4,1.1,88,0.00,,,0.00,WUHU216HW,2013-01-29 11:14:00,
2013-01-29 06:19:00,44.5,41.1,29.79,WSW,248,1.8,1.8,88,0.00,,,0.00,WUHU216HW,2013-01-29 11:19:00,
2013-01-29 06:24:00,44.5,41.1,29.79,SE,135,0.9,1.8,88,0.00,,,0.00,WUHU216HW,2013-01-29 11:24:00,
2013-01-29 06:29:00,44.5,41.1,29.79,SW,225,0.4,1.1,88,0.00,,,0.00,WUHU216HW,2013-01-29 11:29:00,
2013-01-29 06:34:00,44.5,41.1,29.79,South,180,0.0,1.8,88,0.00,,,0.00,WUHU216HW,2013-01-29 11:34:00,
2013-01-29 06:39:00,44.5,41.5,29.79,SW,225,0.4,1.8,89,0.00,,,0.00,WUHU216HW,2013-01-29 11:39:00,
2013-01-29 06:44:00,44.5,41.5,29.79,SSW,203,0.0,1.8,89,0.00,,,0.00,WUHU216HW,2013-01-29 11:44:00,
2013-01-29 06:49:00,44.5,41.5,29.79,SSW,203,1.1,1.3,89,0.00,,,0.00,WUHU216HW,2013-01-29 11:49:00,
2013-01-29 06:54:00,44.5,41.5,29.79,SW,225,0.0,1.3,89,0.00,,,0.00,WUHU216HW,2013-01-29 11:54:00,
2013-01-29 06:59:00,44.5,41.1,29.79,NE,45,0.2,1.1,88,0.00,,,0.00,WUHU216HW,2013-01-29 11:59:00,
2013-01-29 07:04:00,44.5,41.1,29.79,South,180,1.3,1.3,88,0.00,,,0.00,WUHU216HW,2013-01-29 12:04:00,
2013-01-29 07:10:00,44.5,41.5,29.79,SW,225,0.0,1.3,89,0.00,,,0.00,WUHU216HW,2013-01-29 12:10:00,
2013-01-29 07:14:00,44.5,41.5,29.79,SW,225,0.0,0.0,89,0.00,,,0.00,WUHU216HW,2013-01-29 12:14:00,
2013-01-29 07:19:00,44.5,41.1,29.79,NW,315,1.1,1.1,88,0.00,,,0.00,WUHU216HW,2013-01-29 12:19:00,
2013-01-29 07:24:00,44.5,41.1,29.79,NW,315,1.1,1.1,88,0.00,,,0.00,WUHU216HW,2013-01-29 12:24:00,
2013-01-29 07:59:00,44.6,41.7,29.80,SE,135,1.1,1.1,89,0.00,,,0.00,WUHU216HW,2013-01-29 12:59:00,
2013-01-29 08:04:00,44.6,41.7,29.80,SE,135,1.1,1.1,89,0.00,,,0.00,WUHU216HW,2013-01-29 13:04:00,
2013-01-29 19:59:00,64.1,54.9,29.66,SSE,158,0.9,0.9,72,0.00,,,0.00,WUHU216HW,2013-01-30 00:59:00,
2013-01-29 20:00:00,64.1,54.9,29.66,SSE,158,0.9,0.9,72,0.00,,,0.00,WUHU216HW,2013-01-30 01:00:00,
2013-01-29 20:05:00,64.1,54.9,29.66,South,180,1.6,3.6,72,0.00,,,0.00,WUHU216HW,2013-01-30 01:05:00,
2013-01-29 20:10:00,64.1,55.3,29.66,South,180,2.2,3.6,73,0.00,,,0.00,WUHU216HW,2013-01-30 01:10:00,
2013-01-29 20:15:00,63.9,55.1,29.66,SSE,158,1.8,4.0,73,0.00,,,0.00,WUHU216HW,2013-01-30 01:15:00,
2013-01-29 20:20:00,63.9,55.1,29.66,SW,225,0.9,4.0,73,0.00,,,0.00,WUHU216HW,2013-01-30 01:20:00,
2013-01-29 20:25:00,63.9,55.1,29.66,South,180,0.9,3.4,73,0.00,,,0.00,WUHU216HW,2013-01-30 01:25:00,
2013-01-29 20:30:00,63.7,54.9,29.66,SSW,203,2.2,3.4,73,0.00,,,0.00,WUHU216HW,2013-01-30 01:30:00,
2013-01-29 20:35:00,63.7,54.9,29.66,SSW,203,2.2,2.5,73,0.00,,,0.00,WUHU216HW,2013-01-30 01:35:00,
2013-01-29 20:39:00,63.7,55.3,29.66,SSW,203,1.3,3.4,74,0.00,,,0.00,WUHU216HW,2013-01-30 01:39:00,
2013-01-29 20:44:00,63.7,55.3,29.66,South,180,3.8,4.7,74,0.00,,,0.00,WUHU216HW,2013-01-30 01:44:00,
2013-01-29 20:49:00,63.7,55.3,29.66,SE,135,4.7,5.8,74,0.00,,,0.00,WUHU216HW,2013-01-30 01:49:00,
2013-01-29 20:54:00,63.9,55.4,29.66,SSW,203,5.1,5.8,74,0.00,,,0.00,WUHU216HW,2013-01-30 01:54:00,
2013-01-29 21:00:00,63.9,55.4,29.66,West,270,1.3,5.1,74,0.00,,,0.00,WUHU216HW,2013-01-30 02:00:00,
2013-01-29 21:05:00,63.9,55.4,29.66,SW,225,2.5,5.1,74,0.00,,,0.00,WUHU216HW,2013-01-30 02:05:00,
2013-01-29 21:10:00,63.9,55.4,29.66,ESE,113,1.8,6.3,74,0.00,,,0.00,WUHU216HW,2013-01-30 02:10:00,
2013-01-29 21:15:00,64.1,55.6,29.66,ESE,113,1.1,6.3,74,0.00,,,0.00,WUHU216HW,2013-01-30 02:15:00,
2013-01-29 21:19:00,64.1,55.3,29.66,SSW,203,0.9,4.0,73,0.00,,,0.00,WUHU216HW,2013-01-30 02:19:00,
2013-01-29 21:24:00,63.9,55.1,29.66,SW,225,1.1,3.4,73,0.00,,,0.00,WUHU216HW,2013-01-30 02:24:00,
2013-01-29 21:29:00,63.7,55.3,29.67,South,180,1.1,3.4,74,0.00,,,0.00,WUHU216HW,2013-01-30 02:29:00,
2013-01-29 21:34:00,63.7,55.3,29.67,SSE,158,2.5,4.3,74,0.00,,,0.00,WUHU216HW,2013-01-30 02:34:00,
2013-01-29 21:39:00,63.7,55.3,29.67,SSW,203,1.8,4.3,74,0.00,,,0.00,WUHU216HW,2013-01-30 02:39:00,
2013-01-29 21:44:00,63.7,55.3,29.67,SW,225,0.4,3.6,74,0.00,,,0.00,WUHU216HW,2013-01-30 02:44:00,
2013-01-29 21:49:00,63.7,55.3,29.67,WSW,248,2.0,3.4,74,0.00,,,0.00,WUHU216HW,2013-01-30 02:49:00,
2013-01-29 21:54:00,63.7,55.3,29.67,SSW,203,1.1,3.1,74,0.00,,,0.00,WUHU216HW,2013-01-30 02:54:00,
2013-01-29 21:59:00,63.7,55.3,29.68,SSW,203,0.7,2.9,74,0.00,,,0.00,WUHU216HW,2013-01-30 02:59:00,
2013-01-29 22:04:00,63.5,55.1,29.68,South,180,1.1,3.6,74,0.00,,,0.00,WUHU216HW,2013-01-30 03:04:00,
2013-01-29 22:09:00,63.4,54.9,29.68,SSW,203,2.2,3.6,74,0.00,,,0.00,WUHU216HW,2013-01-30 03:09:00,
2013-01-29 22:14:00,63.4,54.9,29.67,WSW,248,1.6,2.9,74,0.00,,,0.00,WUHU216HW,2013-01-30 03:14:00,
2013-01-29 22:19:00,63.4,54.9,29.67,South,180,1.8,3.8,74,0.00,,,0.00,WUHU216HW,2013-01-30 03:19:00,
2013-01-29 22:24:00,63.4,54.9,29.66,SSW,203,1.8,3.8,74,0.00,,,0.00,WUHU216HW,2013-01-30 03:24:00,
2013-01-29 22:29:00,63.2,54.7,29.66,SSE,158,0.2,2.5,74,0.00,,,0.00,WUHU216HW,2013-01-30 03:29:00,
2013-01-29 22:34:00,63.0,54.5,29.66,ESE,113,0.9,3.1,74,0.00,,,0.00,WUHU216HW,2013-01-30 03:34:00,
2013-01-29 22:39:00,62.8,54.7,29.66,ESE,113,0.9,3.1,75,0.00,,,0.00,WUHU216HW,2013-01-30 03:39:00,
2013-01-29 22:44:00,62.6,54.2,29.65,ESE,113,0.0,2.9,74,0.00,,,0.00,WUHU216HW,2013-01-30 03:44:00,
2013-01-29 22:49:00,62.5,54.0,29.64,SSE,158,0.2,2.5,74,0.00,,,0.00,WUHU216HW,2013-01-30 03:49:00,
2013-01-29 22:54:00,62.3,54.2,29.64,SE,135,0.9,3.1,75,0.00,,,0.00,WUHU216HW,2013-01-30 03:54:00,
2013-01-29 22:59:00,62.3,54.2,29.64,South,180,0.4,3.1,75,0.00,,,0.00,WUHU216HW,2013-01-30 03:59:00,
2013-01-29 23:04:00,62.3,54.2,29.64,SW,225,1.8,1.8,75,0.00,,,0.00,WUHU216HW,2013-01-30 04:04:00,
2013-01-29 23:09:00,62.3,54.5,29.65,SE,135,2.5,2.5,76,0.00,,,0.00,WUHU216HW,2013-01-30 04:09:00,
2013-01-29 23:14:00,62.3,54.5,29.65,SW,225,3.1,3.1,76,0.00,,,0.00,WUHU216HW,2013-01-30 04:14:00,
2013-01-29 23:19:00,62.3,54.5,29.64,ESE,113,0.9,3.8,76,0.00,,,0.00,WUHU216HW,2013-01-30 04:19:00,
2013-01-29 23:24:00,62.3,54.5,29.64,SSW,203,0.4,4.3,76,0.00,,,0.00,WUHU216HW,2013-01-30 04:24:00,
2013-01-29 23:29:00,62.3,54.5,29.65,SSW,203,4.0,4.3,76,0.00,,,0.00,WUHU216HW,2013-01-30 04:29:00,
2013-01-29 23:34:00,62.3,54.5,29.65,SE,135,3.4,4.5,76,0.00,,,0.00,WUHU216HW,2013-01-30 04:34:00,
2013-01-29 23:39:00,62.3,54.9,29.65,SE,135,2.5,5.1,77,0.00,,,0.00,WUHU216HW,2013-01-30 04:39:00,
2013-01-29 23:44:00,62.5,55.1,29.64,SSW,203,3.8,5.1,77,0.00,,,0.00,WUHU216HW,2013-01-30 04:44:00,
2013-01-29 23:49:00,62.5,55.1,29.64,SE,135,0.9,4.5,77,0.00,,,0.00,WUHU216HW,2013-01-30 04:49:00,
2013-01-29 23:54:00,62.5,55.1,29.64,SW,225,2.5,4.3,77,0.00,,,0.00,WUHU216HW,2013-01-30 04:54:00,
2013-01-29 23:59:00,62.6,55.6,29.64,South,180,3.4,4.5,78,0.00,,,0.00,WUHU216HW,2013-01-30 04:59:00,